Regional Weather Roundup
Issued by NWS

Home | Current Version | Previous Version | Text Only | Print | Product List | Glossary Off
Versions: 1 2 3 4 5 6 7 8 9 10 11 12 13 14 15 16 17 18 19 20 21 22 23 24 25 26 27 28 29 30 31 32 33 34 35 36 37 38 39 40 41 42 43 44 45 46 47 48 49 50

833
ASUS43 KOAX 262010
RWRNE

WEATHER ROUNDUP FOR NEBRASKA
NATIONAL WEATHER SERVICE OMAHA NE
300 PM CDT WED JUL 26 2017

NOTES: SATELLITE DATA IS BEING USED TO AUGMENT CLOUD COVER ABOVE
       12000 FEET.
       "FAIR" INDICATES FEW OR NO CLOUDS BELOW 12,000 FEET WITH NO
       SIGNIFICANT WEATHER AND/OR OBSTRUCTIONS TO VISIBILITY.


NEZ001>004-019>022-054>056-262100-
NEBRASKA PANHANDLE

CITY           SKY/WX    TMP DP  RH WIND       PRES   REMARKS
SCOTTSBLUFF    CLOUDY    81  58  45 E13       30.19F
ALLIANCE       CLOUDY    79  60  52 NE17G23   30.17F
CHADRON        CLOUDY    82  54  37 E12G20    30.16S
GORDON         FAIR      82  57  43 NE16G24   30.17S
KIMBALL        CLOUDY    79  58  49 N13G18    30.25S
SIDNEY         CLOUDY    82  60  47 NE17G24   30.20S
$$

NEZ057>060-069>072-079>082-262100-
SOUTHWEST NEBRASKA

CITY           SKY/WX    TMP DP  RH WIND       PRES   REMARKS
NORTH PLATTE   CLOUDY    78  67  68 NE7       30.09R
IMPERIAL       CLOUDY    82  64  54 NE13      30.11S
LEXINGTON      CLOUDY    75  69  82 NE15G21   30.06R
MCCOOK         CLOUDY    76  69  79 N20       30.06R
OGALLALA       CLOUDY    82  64  55 NE15      30.13R
$$

NEZ005>010-023>029-035>040-094-262100-
NORTH CENTRAL NEBRASKA

CITY           SKY/WX    TMP DP  RH WIND       PRES   REMARKS
VALENTINE      CLOUDY    87  62  43 NE18G25   30.10S
AINSWORTH      CLOUDY    78  68  69 NE13      30.10F
BROKEN BOW     CLOUDY    78  68  71 NE13      30.07S
O`NEILL        CLOUDY    81  71  71 NE10      30.05F
ORD            CLOUDY    78  68  71 N8        30.04S
THEDFORD       CLOUDY    78  67  68 NE10      30.11S
$$

NEZ041-046>049-061>064-073>077-083>087-262100-
SOUTH CENTRAL NEBRASKA

CITY           SKY/WX    TMP DP  RH WIND       PRES   REMARKS
GRAND ISLAND   CLOUDY    75  73  93 NE12      30.02S
AURORA         CLOUDY    74  73  96 N13       30.01R
HASTINGS       CLOUDY    77  72  84 N15       30.02R
HEBRON         CLOUDY    83  73  70 S7        29.97F
HOLDREGE       CLOUDY    74  71  89 NE13G18   30.02R
KEARNEY        CLOUDY    75  72  90 NE18      30.03R
YORK           LGT RAIN  73  73 100 NE13      30.00S
$$

NEZ011>018-030>034-042>045-262100-
NORTHEAST NEBRASKA

CITY           SKY/WX    TMP DP  RH WIND       PRES   REMARKS
NORFOLK        CLOUDY    79  70  74 E6        30.01F
ALBION         CLOUDY    80  72  75 NE9       30.03S
BLAIR          CLOUDY    73  72  97 CALM      30.01S
COLUMBUS       RAIN      74  73  97 CALM      30.01S FOG
FREMONT        DRIZZLE   73  73  98 E3        30.00S
TEKAMAH        CLOUDY    76  73  91 E5        29.99S
WAYNE          CLOUDY    81  76  86 E10       30.01S
$$

NEZ050>053-065>068-078-088>093-262100-
SOUTHEAST NEBRASKA

CITY           SKY/WX    TMP DP  RH WIND       PRES   REMARKS
LINCOLN        CLOUDY    79  75  87 N13       29.97F
OMAHA EPPLEY   TSTM      74  71  91 N9        29.99S FOG
BEATRICE       CLOUDY    84  73  69 S6        29.97F
FALLS CITY     CLOUDY    80  74  81 S8        29.96S
NEBRASKA CITY  PTSUNNY   80  78  91 S9        29.98S
PLATTSMOUTH    CLOUDY    78  73  86 CALM      29.99S
$$

NEZ044-045-051>053-067-262100-
OMAHA AREA

CITY           SKY/WX    TMP DP  RH WIND       PRES   REMARKS
OMAHA EPPLEY   TSTM      74  71  91 N9        29.99S FOG
BLAIR          CLOUDY    73  72  97 CALM      30.01S
FREMONT        DRIZZLE   73  73  98 E3        30.00S
MILLARD        RAIN      76  75  96 CALM      29.98F
OFFUTT AFB     CLOUDY    75  73  94 NE6       29.98S
PLATTSMOUTH    CLOUDY    78  73  86 CALM      29.99S
WAHOO          LGT RAIN  73  72  97 CALM      30.00R
$$




USA.gov is the U.S. government's official web portal to all federal, state and local government web resources and services.